Weather in Salnytsia

Ukraine / Vinnytsia Region     49°44′11″N   28°01′04″E
temp.,
°C
wind,
m/s
gust,
m/s
humid.,
%
clouds,
%
prec.,
mm/h
press.,
hPa
HPBL,
m
27 october, wed
wed2700:00+3s4127550 0.0 1025247
03:00+2ssw410885 0.0 1025183
06:00+1sw47927 0.0 1025114
09:00+3wsw367697 0.0 1025147
12:00+11wnw575815 0.0 1025610
15:00+13nw575479 0.0 10241356
18:00+10wnw3562100 0.0 102589
21:00+6w338097 0.0 102635
28 october, thu
thu2800:00+6w348522 0.0 102663
03:00+5wsw379186 0.0 1026109
06:00+5wsw499013 0.0 1025153
09:00+6w410815 0.0 1026241
12:00+13wnw695629 0.0 1025615
15:00+15wnw7957100 0.0 1024939
18:00+11nw36815 0.0 102591
21:00+9nw359199 0.0 102673
29 october, fri
fri2900:00+10nnw2587100 0.0 1026151
03:00+10n228924 0.0 102737
06:00+8ene11947 0.0 102710
09:00+8e22915 0.0 102831
12:00+14ese335723 0.0 1028938
15:00+16se34475 0.0 10271157
18:00+11se33615 0.0 102738
21:00+8se48735 0.0 1027128
30 october, sat
sat3000:00+7sse410870 0.0 1028180
03:00+6sse410935 0.0 1028189
06:00+5se410945 0.0 1028185
09:00+7sse512906 0.0 1028319
12:00+13sse710595 0.0 1027761
15:00+16s79455 0.0 10261066
18:00+11sse49600 0.0 1027160
21:00+8sse413760 0.0 1027258
31 october, sun
sun3100:00+8sse514760 0.0 1028339
03:00+6sse514830 0.0 1027339
05:00+5sse514910 0.0 1026344
08:00+6sse615860 0.0 1026447
11:00+12sse913470 0.0 1024717
14:00+14sse811370 0.0 1022922
17:00+11sse713480 0.0 1021473
20:00+9sse616600 0.0 1021546